Satellite: OKEAN-4
Catalog number: 23317
Epoch time:      09259.74523149
Element set:    0020
Inclination:      082.5368 deg
RA of node:       249.0375 deg
Eccentricity:    0.0023949
Arg of perigee:   064.5498 deg
Mean anomaly:     295.8213 deg
Mean motion:   14.82719968 rev/day
Decay rate:       1.99e-06 rev/day^2
Epoch rev:           80593
Checksum:              346

Satellite: NOAA-14
Catalog number: 23455
Epoch time:      09259.82096992
Element set:    0760
Inclination:      098.9027 deg
RA of node:       337.1519 deg
Eccentricity:    0.0008504
Arg of perigee:   292.2126 deg
Mean anomaly:     067.8118 deg
Mean motion:   14.13769179 rev/day
Decay rate:       -7.1e-07 rev/day^2
Epoch rev:           75887
Checksum:              346

Satellite: NOAA-15
Catalog number: 25338
Epoch time:      09259.90902129
Element set:    0084
Inclination:      098.5931 deg
RA of node:       247.1440 deg
Eccentricity:    0.0011256
Arg of perigee:   146.2229 deg
Mean anomaly:     213.9660 deg
Mean motion:   14.24784579 rev/day
Decay rate:       1.19e-06 rev/day^2
Epoch rev:           58983
Checksum:              326

Satellite: RESURS
Catalog number: 25394
Epoch time:      09259.98431836
Element set:    0333
Inclination:      098.3344 deg
RA of node:       287.6351 deg
Eccentricity:    0.0001352
Arg of perigee:   343.9349 deg
Mean anomaly:     016.1788 deg
Mean motion:   14.24188465 rev/day
Decay rate:       -6.9e-07 rev/day^2
Epoch rev:           58146
Checksum:              332

Satellite: FENGYUN1
Catalog number: 25730
Epoch time:      09260.88041708
Element set:     853
Inclination:      098.7606 deg
RA of node:       228.2872 deg
Eccentricity:    0.0022076
Arg of perigee:   316.9857 deg
Mean anomaly:     042.9587 deg
Mean motion:   14.07983746 rev/day
Decay rate:       5.59e-06 rev/day^2
Epoch rev:           53336
Checksum:              342

Satellite: OKEAN-0
Catalog number: 25860
Epoch time:      09260.51968836
Element set:     786
Inclination:      097.7975 deg
RA of node:       238.0814 deg
Eccentricity:    0.0000587
Arg of perigee:   090.8756 deg
Mean anomaly:     269.2514 deg
Mean motion:   14.73587504 rev/day
Decay rate:        1.3e-07 rev/day^2
Epoch rev:           54674
Checksum:              344

Satellite: NOAA-16
Catalog number: 26536
Epoch time:      09259.88094058
Element set:    0563
Inclination:      099.1800 deg
RA of node:       265.7820 deg
Eccentricity:    0.0010921
Arg of perigee:   029.1336 deg
Mean anomaly:     331.0432 deg
Mean motion:   14.12530688 rev/day
Decay rate:      -1.69e-06 rev/day^2
Epoch rev:           46324
Checksum:              304

Satellite: NOAA-17
Catalog number: 27453
Epoch time:      09259.83132653
Element set:    0560
Inclination:      098.4747 deg
RA of node:       315.7021 deg
Eccentricity:    0.0011323
Arg of perigee:   211.3995 deg
Mean anomaly:     148.6482 deg
Mean motion:   14.24091182 rev/day
Decay rate:       1.17e-06 rev/day^2
Epoch rev:           37579
Checksum:              309

Satellite: NOAA-18
Catalog number: 28654
Epoch time:      09259.85915084
Element set:    0047
Inclination:      098.9123 deg
RA of node:       202.4128 deg
Eccentricity:    0.0015268
Arg of perigee:   102.7377 deg
Mean anomaly:     257.5512 deg
Mean motion:   14.11284500 rev/day
Decay rate:      -1.83e-06 rev/day^2
Epoch rev:           22288
Checksum:              308

Satellite: NOAA-19
Catalog number: 33591
Epoch time:      09259.85883179
Element set:    0252
Inclination:      098.7518 deg
RA of node:       203.2618 deg
Eccentricity:    0.0014195
Arg of perigee:   348.2897 deg
Mean anomaly:     011.7959 deg
Mean motion:   14.10984596 rev/day
Decay rate:      -1.34e-06 rev/day^2
Epoch rev:           03136
Checksum:              346

/EX
SB KEPS @ AMSAT  $ORB09260.M
Orbital Elements  09260.MISC

HR AMSAT ORBITAL ELEMENTS FOR MANNED AND MISCELLANEOUS SATELLITES
FROM WA5QGD FORT WORTH,TX September 17, 2009
Send Subscribe/unsubscribe to KEPS at 
http://www.amsat.org/mailman/listinfo/keps
BID: ORB09260.M
TO ALL RADIO AMATEURS BT

Satellite: HUBBLE
Catalog number: 20580
Epoch time:      09259.08437116
Element set:    0447
Inclination:      028.4702 deg
RA of node:       229.0485 deg
Eccentricity:    0.0003477
Arg of perigee:   167.4835 deg
Mean anomaly:     192.5878 deg
Mean motion:   15.00829594 rev/day
Decay rate:       3.07e-06 rev/day^2
Epoch rev:           86352
Checksum:              319

Satellite: ISS
Catalog number: 25544
Epoch time:      09259.87340920
Element set:    0622
Inclination:      051.6371 deg
RA of node:       196.1499 deg
Eccentricity:    0.0009356
Arg of perigee:   097.8592 deg
Mean anomaly:     019.9809 deg
Mean motion:   15.74137060 rev/day
Decay rate:      7.169e-05 rev/day^2
Epoch rev:           62039
Checksum:              334

Satellite: CO-58
Catalog number: 28895
Epoch time:      09260.25574701
Element set:     397
Inclination:      098.0437 deg
RA of node:       148.2275 deg
Eccentricity:    0.0018879
Arg of perigee:   061.5325 deg
Mean anomaly:     298.7754 deg
Mean motion:   14.59795182 rev/day
Decay rate:       1.22e-06 rev/day^2
Epoch rev:           20716
Checksum:              351

